Lawton, OK

2:42 AM CDT on April 22, 2018 (GMT -0500)
Lawton-Fort Sill Regional

Weather History for KLAW - August, 2014

Change the Weather History Date:

Monday, August 11, 2014

  Actual Average Record
Temperature  
Mean Temperature 87 °F -  
Max Temperature 99 °F 94 °F 108 °F (1953)
Min Temperature 75 °F 69 °F 61 °F (1959)
Cooling Degree Days 22    
Growing Degree Days 37 (Base 50)    
Moisture  
Dew Point 63 °F    
Average Humidity 50    
Maximum Humidity 76    
Minimum Humidity 26    
Precipitation  
Precipitation 0.00 in - - ()
Sea Level Pressure  
Sea Level Pressure 30.04 in    
Wind  
Wind Speed 8 mph (NNE)    
Max Wind Speed 16 mph    
Max Gust Speed 22 mph    
Visibility 10 miles    
Events      
Averages and records for this station are not official NWS values.
T = Trace of Precipitation, MM = Missing Value Source: NWS Daily Summary

Daily Weather History Graph

Daily Weather History Graph

Search for Another Location

Airport or City:

Astronomy

Aug. 11, 2014 Rise Set
Actual Time 6:51 AM CDT 8:25 PM CDT
Civil Twilight 6:24 AM CDT 8:52 PM CDT
Nautical Twilight 5:52 AM CDT 9:24 PM CDT
Astronomical Twilight 5:18 AM CDT 9:58 PM CDT
Moon 9:01 PM CDT (8/11) 7:53 AM CDT (8/11)
Length of Visible Light 14h 28m
Length of Day
13h 34m
Full, 99% of the Moon is Illuminated
Aug 11
Full
Aug 17
Last Quarter
Aug 25
New
Sep 2
First Quarter
Sep 8
Full

Hourly Weather History & Observations

Time (CDT) Temp. Heat Index Dew Point Humidity Pressure Visibility Wind Dir Wind Speed Gust Speed Precip Events Conditions
12:53 AM 79.0 °F - 66.9 °F 66% 30.03 in 10.0 mi NE 4.6 mph - N/A   Clear
1:53 AM 78.1 °F - 66.9 °F 68% 30.01 in 10.0 mi NNE 4.6 mph - N/A   Clear
2:53 AM 79.0 °F - 69.1 °F 72% 30.01 in 10.0 mi NNE 6.9 mph - N/A   Clear
3:53 AM 78.1 °F - 68.0 °F 71% 30.01 in 10.0 mi NNE 6.9 mph - N/A   Clear
4:53 AM 77.0 °F - 68.0 °F 74% 30.01 in 10.0 mi NNE 8.1 mph - N/A   Partly Cloudy
5:53 AM 75.9 °F - 68.0 °F 76% 30.02 in 10.0 mi North 9.2 mph - N/A   Clear
6:53 AM 75.9 °F - 68.0 °F 76% 30.04 in 10.0 mi NNE 5.8 mph - N/A   Mostly Cloudy
7:53 AM 78.1 °F - 68.0 °F 71% 30.05 in 10.0 mi NNE 8.1 mph - N/A   Clear
8:53 AM 81.0 °F 83.3 °F 66.9 °F 62% 30.08 in 10.0 mi NE 9.2 mph - N/A   Clear
9:53 AM 84.9 °F 87.1 °F 66.0 °F 53% 30.10 in 10.0 mi NNE 4.6 mph - N/A   Clear
10:53 AM 88.0 °F 90.3 °F 66.0 °F 48% 30.10 in 10.0 mi Variable 4.6 mph - N/A   Clear
11:53 AM 91.9 °F 91.8 °F 61.0 °F 35% 30.09 in 10.0 mi North 11.5 mph - N/A   Clear
12:53 PM 93.9 °F 94.0 °F 61.0 °F 33% 30.08 in 10.0 mi North 10.4 mph - N/A   Clear
1:53 PM 96.1 °F 95.6 °F 59.0 °F 29% 30.06 in 10.0 mi NNE 15.0 mph 18.4 mph N/A   Clear
2:53 PM 97.0 °F 96.9 °F 60.1 °F 29% 30.03 in 10.0 mi NNW 8.1 mph 19.6 mph N/A   Clear
3:53 PM 98.1 °F 97.7 °F 59.0 °F 27% 30.01 in 10.0 mi North 15.0 mph - N/A   Clear
4:53 PM 99.0 °F 98.6 °F 59.0 °F 26% 29.99 in 10.0 mi North 15.0 mph 18.4 mph N/A   Clear
5:53 PM 95.0 °F 94.8 °F 60.1 °F 31% 29.98 in 10.0 mi North 16.1 mph 21.9 mph N/A   Mostly Cloudy
6:53 PM 95.0 °F 95.2 °F 61.0 °F 32% 29.98 in 10.0 mi North 11.5 mph - N/A   Partly Cloudy
7:53 PM 91.0 °F 90.9 °F 61.0 °F 36% 29.99 in 10.0 mi NNE 10.4 mph - N/A   Clear
8:53 PM 88.0 °F 88.4 °F 62.1 °F 42% 30.03 in 10.0 mi NNE 10.4 mph - N/A   Clear
9:53 PM 84.9 °F 84.4 °F 59.0 °F 41% 30.05 in 10.0 mi NNE 9.2 mph - N/A   Clear
10:53 PM 82.0 °F 82.0 °F 57.9 °F 44% 30.07 in 10.0 mi NNE 9.2 mph - N/A   Clear
11:53 PM 80.1 °F 80.6 °F 57.9 °F 47% 30.08 in 10.0 mi NNE 6.9 mph - N/A   Clear